When you browse on this site, cookies collect data to enhance your experience and personalize the content and advertising you see.
Visit our Privacy Policy to learn more. By continuing to use the site, you agree to this use of cookies and data.
  • In Romania
  • List of Countries
  • For 7 days
  • Water Temperature
  • Satellite Maps
  • Weather Map
  • Weather Widgets
  • user-avatar
    Login

    Hourly Weather Pervomayskiy

    Today, 22 April, Monday

    Time Temperature Precipitation Wind Pressure Humidity
    00:00 +3°C° 0 mm 4 mps 738 mmHg 80%
    01:00 +3°C° 0 mm 4 mps 738 mmHg 83%
    02:00 +1°C° 0 mm 4 mps 738 mmHg 85%
    03:00 +2°C° 0 mm 3 mps 738 mmHg 87%
    04:00 +2°C° 0 mm 3 mps 738 mmHg 87%
    05:00 +1°C° 0 mm 4 mps 738 mmHg 87%
    06:00 +1°C° 0 mm 4 mps 739 mmHg 87%
    07:00 +3°C° 0 mm 4 mps 739 mmHg 83%
    08:00 +3°C° 0 mm 5 mps 739 mmHg 79%
    09:00 +5°C° 0 mm 5 mps 739 mmHg 76%
    10:00 +6°C° 0 mm 5 mps 738 mmHg 71%
    11:00 +7°C° 0 mm 6 mps 738 mmHg 67%
    12:00 +8°C° 0 mm 6 mps 738 mmHg 63%
    13:00 +9°C° 0 mm 6 mps 738 mmHg 62%
    14:00 +9°C° 0 mm 6 mps 738 mmHg 61%
    15:00 +10°C° 0 mm 6 mps 738 mmHg 60%
    16:00 +9°C° 0 mm 5 mps 739 mmHg 62%
    17:00 +9°C° 0 mm 5 mps 739 mmHg 64%
    18:00 +10°C° 0 mm 4 mps 739 mmHg 67%
    19:00 +7°C° 0 mm 4 mps 740 mmHg 71%
    20:00 +7°C° 0 mm 3 mps 740 mmHg 76%
    21:00 +5°C° 0 mm 3 mps 741 mmHg 80%
    22:00 +4°C° 0 mm 3 mps 741 mmHg 81%
    23:00 +4°C° 0 mm 3 mps 741 mmHg 82%

    Tomorrow, 23 April, Tuesday

    Time Temperature Precipitation Wind Pressure Humidity
    00:00 +4°C° 0 mm 2 mps 741 mmHg 84%
    01:00 +4°C° 0 mm 2 mps 742 mmHg 84%
    02:00 +3°C° 0 mm 2 mps 742 mmHg 85%
    03:00 +4°C° 0 mm 1 mps 742 mmHg 85%
    04:00 +4°C° 0 mm 1 mps 742 mmHg 85%
    05:00 +4°C° 0 mm 1 mps 742 mmHg 84%
    06:00 +4°C° 0 mm 1 mps 743 mmHg 83%
    07:00 +6°C° 0 mm 1 mps 743 mmHg 72%
    08:00 +7°C° 0 mm 2 mps 743 mmHg 61%
    09:00 +9°C° 0 mm 2 mps 743 mmHg 49%
    10:00 +10°C° 0 mm 3 mps 743 mmHg 46%
    11:00 +12°C° 0 mm 3 mps 743 mmHg 43%
    12:00 +13°C° 0 mm 4 mps 743 mmHg 39%
    13:00 +13°C° 0 mm 3 mps 743 mmHg 39%
    14:00 +14°C° 0 mm 3 mps 743 mmHg 38%
    15:00 +14°C° 0 mm 3 mps 743 mmHg 37%
    16:00 +14°C° 0 mm 3 mps 743 mmHg 40%
    17:00 +14°C° 0 mm 2 mps 744 mmHg 44%
    18:00 +14°C° 0 mm 2 mps 744 mmHg 47%
    19:00 +12°C° 0 mm 1 mps 744 mmHg 49%
    20:00 +11°C° 0 mm 1 mps 745 mmHg 50%
    21:00 +8°C° 0 mm 0 mps 745 mmHg 52%
    22:00 +9°C° 0 mm 1 mps 745 mmHg 54%
    23:00 +8°C° 0 mm 1 mps 745 mmHg 56%

    Day after tomorrow, 24 April, Wednesday

    Time Temperature Precipitation Wind Pressure Humidity
    00:00 +8°C° 0 mm 1 mps 745 mmHg 57%
    01:00 +8°C° 0 mm 1 mps 745 mmHg 59%
    02:00 +6°C° 0 mm 2 mps 745 mmHg 61%
    03:00 +6°C° 0 mm 2 mps 745 mmHg 63%
    04:00 +6°C° 0 mm 2 mps 745 mmHg 64%
    05:00 +6°C° 0 mm 2 mps 745 mmHg 65%
    06:00 +6°C° 0 mm 2 mps 745 mmHg 66%
    07:00 +8°C° 0 mm 2 mps 745 mmHg 60%
    08:00 +11°C° 0 mm 3 mps 745 mmHg 55%
    09:00 +13°C° 0 mm 3 mps 745 mmHg 49%
    10:00 +13°C° 0 mm 3 mps 745 mmHg 48%
    11:00 +14°C° 0 mm 4 mps 744 mmHg 47%
    12:00 +14°C° 0 mm 4 mps 744 mmHg 46%
    13:00 +15°C° 0 mm 4 mps 744 mmHg 46%
    14:00 +15°C° 0 mm 5 mps 744 mmHg 46%
    15:00 +15°C° 0 mm 5 mps 743 mmHg 46%
    16:00 +15°C° 0 mm 4 mps 744 mmHg 50%
    17:00 +14°C° 0 mm 4 mps 744 mmHg 53%
    18:00 +14°C° 0 mm 3 mps 744 mmHg 57%
    19:00 +13°C° 0 mm 3 mps 744 mmHg 58%
    20:00 +12°C° 0 mm 3 mps 745 mmHg 59%
    21:00 +11°C° 0 mm 3 mps 745 mmHg 60%
    22:00 +11°C° 0 mm 3 mps 745 mmHg 60%
    23:00 +10°C° 0 mm 3 mps 745 mmHg 61%

    25 April, Thursday

    Time Temperature Precipitation Wind Pressure Humidity
    00:00 +10°C° 0 mm 4 mps 745 mmHg 61%
    01:00 +10°C° 0 mm 3 mps 745 mmHg 61%
    02:00 +9°C° 0 mm 3 mps 745 mmHg 62%
    03:00 +9°C° 0 mm 3 mps 745 mmHg 63%
    04:00 +9°C° 0 mm 3 mps 745 mmHg 63%
    05:00 +8°C° 0 mm 3 mps 745 mmHg 64%
    06:00 +8°C° 0 mm 3 mps 745 mmHg 65%
    07:00 +11°C° 0 mm 3 mps 745 mmHg 62%
    08:00 +13°C° 0 mm 3 mps 745 mmHg 59%
    09:00 +16°C° 0 mm 3 mps 745 mmHg 56%
    10:00 +17°C° 0 mm 3 mps 745 mmHg 54%
    11:00 +18°C° 0 mm 3 mps 744 mmHg 51%
    12:00 +19°C° 0 mm 2 mps 744 mmHg 48%
    13:00 +19°C° 0 mm 2 mps 744 mmHg 47%
    14:00 +19°C° 0 mm 2 mps 744 mmHg 46%
    15:00 +20°C° 0 mm 2 mps 743 mmHg 45%
    16:00 +19°C° 0.1 mm 2 mps 743 mmHg 50%
    17:00 +19°C° 0.1 mm 2 mps 743 mmHg 54%
    18:00 +18°C° 0.1 mm 2 mps 743 mmHg 59%
    19:00 +18°C° 0.4 mm 1 mps 743 mmHg 66%
    20:00 +15°C° 0.4 mm 1 mps 744 mmHg 73%
    21:00 +12°C° 0.4 mm 0 mps 744 mmHg 80%
    22:00 +12°C° 0.1 mm 0 mps 744 mmHg 81%
    23:00 +13°C° 0.1 mm 1 mps 744 mmHg 81%

    26 April, Friday

    Time Temperature Precipitation Wind Pressure Humidity
    00:00 +12°C° 0.1 mm 1 mps 743 mmHg 81%
    01:00 +12°C° 0 mm 1 mps 743 mmHg 81%
    02:00 +12°C° 0 mm 1 mps 743 mmHg 80%
    03:00 +11°C° 0 mm 1 mps 743 mmHg 80%
    04:00 +11°C° 0 mm 1 mps 743 mmHg 80%
    05:00 +11°C° 0 mm 1 mps 743 mmHg 79%
    06:00 +12°C° 0 mm 1 mps 743 mmHg 78%
    07:00 +14°C° 0.1 mm 1 mps 743 mmHg 72%
    08:00 +16°C° 0.1 mm 2 mps 743 mmHg 67%
    09:00 +18°C° 0.1 mm 2 mps 743 mmHg 61%
    10:00 +18°C° 0 mm 3 mps 742 mmHg 56%
    11:00 +19°C° 0 mm 4 mps 742 mmHg 51%
    12:00 +20°C° 0 mm 4 mps 742 mmHg 46%
    13:00 +20°C° 0 mm 5 mps 741 mmHg 47%
    14:00 +20°C° 0 mm 5 mps 741 mmHg 48%
    15:00 +20°C° 0 mm 5 mps 741 mmHg 49%
    16:00 +19°C° 0 mm 5 mps 741 mmHg 53%
    17:00 +18°C° 0 mm 4 mps 740 mmHg 57%
    18:00 +18°C° 0 mm 4 mps 740 mmHg 61%
    19:00 +15°C° 0 mm 4 mps 741 mmHg 65%
    20:00 +14°C° 0 mm 3 mps 741 mmHg 69%
    21:00 +12°C° 0 mm 3 mps 741 mmHg 74%
    22:00 +12°C° 0 mm 3 mps 741 mmHg 75%
    23:00 +11°C° 0 mm 3 mps 740 mmHg 76%

    27 April, Saturday

    Time Temperature Precipitation Wind Pressure Humidity
    00:00 +10°C° 0 mm 3 mps 740 mmHg 77%
    01:00 +10°C° 0 mm 3 mps 740 mmHg 78%
    02:00 +10°C° 0 mm 3 mps 740 mmHg 79%
    03:00 +9°C° 0 mm 3 mps 739 mmHg 80%
    04:00 +9°C° 0 mm 2 mps 739 mmHg 79%
    05:00 +9°C° 0 mm 2 mps 739 mmHg 79%
    06:00 +9°C° 0 mm 2 mps 739 mmHg 78%
    07:00 +11°C° 0 mm 3 mps 739 mmHg 70%
    08:00 +13°C° 0 mm 4 mps 739 mmHg 62%
    09:00 +15°C° 0 mm 5 mps 739 mmHg 54%
    10:00 +16°C° 0 mm 5 mps 739 mmHg 51%
    11:00 +17°C° 0 mm 5 mps 738 mmHg 49%
    12:00 +19°C° 0 mm 5 mps 738 mmHg 47%
    13:00 +20°C° 0 mm 5 mps 738 mmHg 46%
    14:00 +20°C° 0 mm 5 mps 738 mmHg 46%
    15:00 +21°C° 0 mm 5 mps 738 mmHg 45%
    16:00 +20°C° 0 mm 5 mps 738 mmHg 50%
    17:00 +19°C° 0 mm 4 mps 738 mmHg 54%
    18:00 +18°C° 0 mm 4 mps 738 mmHg 58%
    19:00 +15°C° 0 mm 4 mps 738 mmHg 62%
    20:00 +14°C° 0 mm 3 mps 738 mmHg 66%
    21:00 +12°C° 0 mm 3 mps 739 mmHg 70%
    22:00 +11°C° 0 mm 3 mps 738 mmHg 72%
    23:00 +11°C° 0 mm 3 mps 738 mmHg 75%
    Show more